Seminole, TX

4:02 PM CDT on August 22, 2017 (GMT -0500)
Seminole

Weather History for KGNC - December, 2012

Change the Weather History Date:

Sunday, December 23, 2012

  Actual Average (KHOB) Record (KHOB)
Temperature  
Mean Temperature 50 °F -  
Max Temperature 66 °F 53 °F 79 °F (1955)
Min Temperature 35 °F 26 °F 9 °F (1953)
Degree Days  
Heating Degree Days 14    
Moisture  
Dew Point 18 °F    
Average Humidity 32    
Maximum Humidity 51    
Minimum Humidity 15    
Precipitation  
Precipitation 0.00 in - - ()
Sea Level Pressure  
Sea Level Pressure 30.01 in    
Wind  
Wind Speed 8 mph (West)    
Max Wind Speed 16 mph    
Max Gust Speed 22 mph    
Visibility 10 miles    
Events      
Averages and records for this station are not official NWS values.
T = Trace of Precipitation, MM = Missing Value Source: NWS Daily Summary

Daily Weather History Graph

Daily Weather History Graph

Search for Another Location

Airport or City:

Trip Planner

Search our weather history database for the weather conditions in past years. The results will help you decide how hot, cold, wet, or windy it might be!

Date:

Astronomy

Dec. 23, 2012 Rise Set
Actual Time 7:49 AM CST 5:50 PM CST
Civil Twilight 7:22 AM CST 6:17 PM CST
Nautical Twilight 6:51 AM CST 6:48 PM CST
Astronomical Twilight 6:21 AM CST 7:18 PM CST
Moon 2:36 PM CST (12/23) 3:41 AM CST (12/23)
Length of Visible Light 10h 54m
Length of Day
10h 00m
Waxing Gibbous, 82% of the Moon is Illuminated
Dec 23
Waxing Gibbous
Dec 28
Full
Jan 4
Last Quarter
Jan 11
New
Jan 18
First Quarter

Hourly Weather History & Observations

Time (CST) Temp. Windchill Dew Point Humidity Pressure Visibility Wind Dir Wind Speed Gust Speed Precip Events Conditions
12:15 AM 39.0 °F 32.3 °F 8.2 °F 28% 30.04 in 10.0 mi WSW 10.4 mph - N/A   Clear
12:35 AM 39.6 °F 33.5 °F 9.1 °F 29% 30.03 in 10.0 mi West 9.2 mph - N/A   Clear
12:55 AM 39.9 °F 36.7 °F 10.2 °F 30% 30.03 in 10.0 mi West 4.6 mph - N/A   Clear
1:15 AM 39.9 °F 35.1 °F 11.1 °F 31% 30.02 in 10.0 mi West 6.9 mph - N/A   Clear
1:35 AM 40.1 °F 36.9 °F 12.2 °F 32% 30.02 in 10.0 mi WNW 4.6 mph - N/A   Clear
1:55 AM 40.3 °F 34.9 °F 13.6 °F 34% 30.01 in 10.0 mi WNW 8.1 mph - N/A   Clear
2:15 AM 43.3 °F 37.2 °F 15.4 °F 32% 30.01 in 10.0 mi West 11.5 mph - N/A   Clear
2:35 AM 43.0 °F 37.2 °F 16.2 °F 34% 30.02 in 10.0 mi West 10.4 mph - N/A   Clear
2:55 AM 41.7 °F 36.7 °F 16.5 °F 36% 30.02 in 10.0 mi NW 8.1 mph - N/A   Clear
3:15 AM 40.1 °F 35.3 °F 16.5 °F 39% 30.03 in 10.0 mi NW 6.9 mph - N/A   Clear
3:35 AM 38.1 °F 35.7 °F 16.9 °F 42% 30.03 in 10.0 mi West 3.5 mph - N/A   Clear
3:55 AM 38.7 °F 35.2 °F 17.6 °F 43% 30.02 in 10.0 mi WNW 4.6 mph - N/A   Clear
4:15 AM 38.5 °F 36.1 °F 17.4 °F 43% 30.02 in 10.0 mi WNW 3.5 mph - N/A   Clear
4:35 AM 36.9 °F 33.1 °F 17.4 °F 45% 30.01 in 10.0 mi West 4.6 mph - N/A   Clear
4:55 AM 36.7 °F 31.2 °F 17.4 °F 46% 30.00 in 10.0 mi West 6.9 mph - N/A   Clear
5:15 AM 38.3 °F 32.5 °F 17.8 °F 44% 30.00 in 10.0 mi West 8.1 mph - N/A   Clear
5:35 AM 38.5 °F 32.1 °F 18.5 °F 45% 30.00 in 10.0 mi WNW 9.2 mph - N/A   Clear
5:55 AM 38.5 °F 34.1 °F 19.2 °F 46% 30.00 in 10.0 mi WNW 5.8 mph - N/A   Clear
6:15 AM 36.9 °F 32.2 °F 19.0 °F 49% 30.00 in 10.0 mi West 5.8 mph - N/A   Clear
6:35 AM 35.4 °F 32.6 °F 18.7 °F 51% 30.00 in 10.0 mi West 3.5 mph - N/A   Clear
6:55 AM 35.8 °F 28.3 °F 18.9 °F 50% 30.01 in 10.0 mi WNW 10.4 mph - N/A   Clear
7:15 AM 37.9 °F 33.5 °F 18.7 °F 46% 30.01 in 10.0 mi WNW 5.8 mph - N/A   Clear
7:35 AM 37.4 °F 32.8 °F 18.5 °F 46% 30.02 in 10.0 mi SW 5.8 mph - N/A   Clear
7:55 AM 35.6 °F 29.2 °F 18.7 °F 50% 30.02 in 10.0 mi WNW 8.1 mph - N/A   Clear
8:15 AM 37.2 °F 32.6 °F 18.9 °F 48% 30.01 in 10.0 mi West 5.8 mph - N/A   Clear
8:35 AM 37.4 °F 32.1 °F 18.9 °F 47% 30.02 in 10.0 mi WSW 6.9 mph - N/A   Clear
8:55 AM 37.0 °F 31.0 °F 19.4 °F 49% 30.03 in 10.0 mi West 8.1 mph - N/A   Clear
9:15 AM 40.8 °F 35.6 °F 19.4 °F 42% 30.03 in 10.0 mi West 8.1 mph - N/A   Clear
9:35 AM 43.5 °F 38.9 °F 19.6 °F 38% 30.03 in 10.0 mi West 8.1 mph - N/A   Clear
9:55 AM 45.7 °F 42.7 °F 19.9 °F 36% 30.03 in 10.0 mi West 5.8 mph - N/A   Clear
10:15 AM 47.1 °F - 20.5 °F 35% 30.03 in 10.0 mi West 6.9 mph - N/A   Clear
10:35 AM 50.0 °F - 21.0 °F 32% 30.04 in 10.0 mi WNW 9.2 mph - N/A   Clear
10:55 AM 52.7 °F - 21.2 °F 29% 30.04 in 10.0 mi West 10.4 mph - N/A   Clear
11:15 AM 54.7 °F - 21.2 °F 27% 30.04 in 10.0 mi West 10.4 mph - N/A   Clear
11:35 AM 56.5 °F - 21.0 °F 25% 30.04 in 10.0 mi West 11.5 mph - N/A   Clear
11:55 AM 57.6 °F - 21.0 °F 24% 30.02 in 10.0 mi West 9.2 mph - N/A   Clear
12:15 PM 58.6 °F - 21.2 °F 24% 30.01 in 10.0 mi West 10.4 mph - N/A   Clear
12:35 PM 59.5 °F - 21.2 °F 23% 30.00 in 10.0 mi West 10.4 mph - N/A   Clear
12:55 PM 60.3 °F - 20.7 °F 22% 30.00 in 10.0 mi West 10.4 mph - N/A   Clear
1:15 PM 60.4 °F - 20.7 °F 22% 29.99 in 10.0 mi West 9.2 mph - N/A   Clear
1:35 PM 60.8 °F - 20.8 °F 21% 29.99 in 10.0 mi West 11.5 mph - N/A   Clear
1:55 PM 61.3 °F - 20.5 °F 21% 29.99 in 10.0 mi WNW 11.5 mph - N/A   Clear
2:15 PM 61.7 °F - 20.3 °F 20% 29.98 in 10.0 mi West 8.1 mph - N/A   Clear
2:35 PM 62.2 °F - 20.3 °F 20% 29.97 in 10.0 mi West 8.1 mph - N/A   Clear
2:55 PM 63.1 °F - 20.5 °F 19% 29.96 in 10.0 mi WSW 9.2 mph - N/A   Clear
3:15 PM 63.9 °F - 20.3 °F 19% 29.96 in 10.0 mi WSW 9.2 mph - N/A   Clear
3:35 PM 65.5 °F - 20.1 °F 18% 29.96 in 10.0 mi West 10.4 mph - N/A   Clear
3:55 PM 66.6 °F - 19.0 °F 16% 29.96 in 10.0 mi West 11.5 mph - N/A   Clear
4:15 PM 66.7 °F - 18.3 °F 16% 29.96 in 10.0 mi WNW 12.7 mph 19.6 mph N/A   Clear
4:35 PM 66.9 °F - 17.1 °F 15% 29.96 in 10.0 mi WNW 16.1 mph 21.9 mph N/A   Clear
4:55 PM 65.8 °F - 16.7 °F 15% 29.96 in 10.0 mi NW 11.5 mph - N/A   Clear
5:15 PM 64.8 °F - 16.5 °F 16% 29.96 in 10.0 mi WNW 9.2 mph 16.1 mph N/A   Clear
5:35 PM 63.0 °F - 16.2 °F 16% 29.96 in 10.0 mi West 9.2 mph - N/A   Clear
5:55 PM 60.3 °F - 16.2 °F 18% 29.96 in 10.0 mi West 9.2 mph - N/A   Clear
6:15 PM 56.7 °F - 16.2 °F 20% 29.97 in 10.0 mi West 8.1 mph - N/A   Clear
6:35 PM 54.1 °F - 16.7 °F 23% 29.98 in 10.0 mi West 8.1 mph - N/A   Clear
6:55 PM 51.1 °F - 16.7 °F 26% 29.99 in 10.0 mi WSW 8.1 mph - N/A   Clear
7:15 PM 49.1 °F - 17.4 °F 28% 30.00 in 10.0 mi West 10.4 mph - N/A   Clear
7:35 PM 48.2 °F - 18.0 °F 30% 30.00 in 10.0 mi West 9.2 mph - N/A   Clear
7:55 PM 48.9 °F - 18.3 °F 30% 30.00 in 10.0 mi West 10.4 mph - N/A   Clear
8:15 PM 49.1 °F - 18.9 °F 30% 30.00 in 10.0 mi West 10.4 mph - N/A   Clear
8:55 PM 45.0 °F 39.3 °F 18.7 °F 35% 30.01 in 10.0 mi WSW 11.5 mph - N/A   Clear
9:15 PM 43.5 °F 37.5 °F 18.9 °F 37% 30.01 in 10.0 mi West 11.5 mph - N/A   Clear
9:35 PM 44.4 °F 39.5 °F 19.2 °F 37% 30.02 in 10.0 mi West 9.2 mph - N/A   Clear
9:55 PM 44.6 °F 39.2 °F 18.5 °F 35% 30.01 in 10.0 mi West 10.4 mph - N/A   Clear
10:15 PM 43.9 °F 39.3 °F 16.9 °F 34% 30.02 in 10.0 mi WNW 8.1 mph - N/A   Clear
10:35 PM 39.7 °F 35.6 °F 15.4 °F 37% 30.02 in 10.0 mi WNW 5.8 mph - N/A   Clear
10:55 PM 39.0 °F 35.7 °F 15.1 °F 38% 30.03 in 10.0 mi WNW 4.6 mph - N/A   Clear
11:15 PM 38.1 °F 32.9 °F 13.8 °F 37% 30.02 in 10.0 mi West 6.9 mph - N/A   Clear
11:35 PM 37.8 °F 32.5 °F 12.4 °F 35% 30.03 in 10.0 mi West 6.9 mph - N/A   Clear
11:55 PM 38.5 °F 32.7 °F 11.5 °F 33% 30.02 in 10.0 mi WSW 8.1 mph - N/A   Clear